This demonstration page uses our WeatherBlox Daily Observations layout. Learn more.

Left ArrowRight Arrow

47.50024, -111.30081

Hourly Observations for April 8, 2022

Temp ( °F °C ) Dew Point ( °F °C ) Humidity (%) Winds ( mph kmh ) Pressure ( in mb ) Visibility ( mi km ) Precip ( " mm )
12:53 am 00:53 Clear 46 7.8 19 -7.2 34 34 S 14 22 30.21 1023 10 16 0.00 0.00
1:53 am 01:53 Clear 44 6.7 20 -6.7 38 38 SSW 13 20 30.19 1022 10 16 0.00 0.00
2:53 am 02:53 Clear 40 4.4 19 -7.2 43 43 SSW 10 17 30.17 1022 10 16 0.00 0.00
3:53 am 03:53 Clear 42 5.6 20 -6.7 41 41 SSW 13 20 30.13 1020 10 16 0.00 0.00
4:53 am 04:53 Clear 45 7.2 19 -7.2 35 35 SSW 13 20 30.10 1019 10 16 0.00 0.00
5:53 am 05:53 Clear 46 7.8 18 -7.8 32 32 S 13 20 30.08 1019 10 16 0.00 0.00
6:53 am 06:53 Sunny 46 7.8 18 -7.8 32 32 SSW 14 22 30.06 1018 10 16 0.00 0.00
7:53 am 07:53 Sunny 49 9.4 19 -7.2 31 31 SSW 17 28 30.06 1018 10 16 0.00 0.00
8:53 am 08:53 Sunny 57 13.9 20 -6.7 24 24 SSW 16 26 30.01 1016 10 16 0.00 0.00
9:53 am 09:53 Sunny 63 17.2 20 -6.7 19 19 S 20 31 29.96 1015 10 16 0.00 0.00
10:53 am 10:53 Sunny 68 20 21 -6.1 17 17 SSW 20 31 29.92 1013 10 16 0.00 0.00
11:53 am 11:53 Sunny 70 21.1 23 -5 17 17 SW 16 26 29.88 1012 10 16 0.00 0.00
12:53 pm 12:53 Sunny 72 22.2 20 -6.7 14 14 SW 25 41 29.81 1010 10 16 0.00 0.00
1:53 pm 13:53 Sunny 73 22.8 20 -6.7 13 13 SW 25 41 29.78 1008 10 16 0.00 0.00
2:53 pm 14:53 Sunny 71 21.7 20 -6.7 14 14 SW 23 37 29.75 1007 10 16 0.00 0.00
3:53 pm 15:53 Sunny 75 23.9 21 -6.1 13 13 SW 23 37 29.69 1005 10 16 0.00 0.00
4:53 pm 16:53 Sunny 75 23.9 21 -6.1 13 13 W 18 30 29.65 1004 10 16 0.00 0.00
5:53 pm 17:53 Sunny 73 22.8 21 -6.1 14 14 W 25 41 29.62 1003 10 16 0.00 0.00
6:53 pm 18:53 Sunny 67 19.4 23 -5 19 19 W 24 39 29.62 1003 10 16 0.00 0.00
7:53 pm 19:53 Sunny 61 16.1 24 -4.4 24 24 W 20 31 29.62 1003 10 16 0.00 0.00
8:53 pm 20:53 Partly Cloudy 58 14.4 27 -2.8 31 31 W 15 24 29.62 1003 10 16 0.00 0.00
9:53 pm 21:53 Partly Cloudy 56 13.3 29 -1.7 36 36 WNW 16 26 29.63 1004 10 16 0.00 0.00
10:53 pm 22:53 Mostly Clear 50 10 30 -1.1 46 46 WNW 23 37 29.66 1004 10 16 0.00 0.00
11:53 pm 23:53 Mostly Cloudy with Light Rain 46 7.8 27 -2.8 47 47 W 30 48 29.71 1006 10 16 0.00 0.00

Powered by AerisWeather